Tracking 25734 objects as of 29-May-2022
HD Live streaming from Space Station
objects crossing your sky now

NOAA 17 DEB

Track NOAA 17 DEB now!
10-day predictions


NORAD ID: 49475
Int'l Code: 2002-032DD
Perigee: 788.6 km
Apogee: 811.5 km
Inclination: 98.5 °
Period: 100.7 minutes
Semi major axis: 7171 km
RCS: Unknown
Launch date: June 24, 2002
Source: United States (US)
Launch site: AIR FORCE WESTERN TEST RANGE (AFWTR)

Note: This is SATELLITE DEBRIS
aabbcc
Your satellite tracking list
Your tracking list is empty




NASA's NSSDC Master Catalog

Two Line Element Set (TLE):
1 49475U 02032DD  22148.55702803  .00008773  00000-0  34322-2 0  9994
2 49475  98.4906  87.9526 0015998  10.2659 349.8847 14.29653514 50704
Source of the keplerian elements: AFSPC